AirNav   Everest Fuels
 
 476 users online  

5TS3 Knapp Pecan Orchard Airpark
Dawson, Texas, USA

GOING TO DAWSON?


FAA INFORMATION EFFECTIVE 25 MARCH 2021

Location

FAA Identifier: 5TS3
Lat/Long: 31-58-27.0000N 096-40-42.0000W
31-58.450000N 096-40.700000W
31.9741667,-96.6783333
(estimated)
Elevation: 450 ft. / 137 m (estimated)
Variation: 06E (1985)
From city: 6 miles N of DAWSON, TX
Time zone: UTC -5 (UTC -6 during Standard Time)
Zip code: 75102

Airport Operations

Airport use: Private use. Permission required prior to landing
Activation date: 08/1985
Control tower: no
ARTCC: FORT WORTH CENTER
FSS: FORT WORTH FLIGHT SERVICE STATION
Attendance: UNATNDD
Wind indicator: no
Segmented circle: no

Airport Communications

WX ASOS at CRS (14 nm E): 120.675 (903-872-9321)

Nearby radio navigation aids

VOR radial/distance  VOR name  Freq  Var
CQYr236/26.6CEDAR CREEK VORTAC114.8006E
ACTr049/35.5WACO VORTAC115.3009E

 
NDB name  Hdg/Dist  Freq  Var  ID
POWELL241/13.934406ECGQ -.-. --. --.-
CORSICANA251/14.839606ECRS -.-. .-. ...
MEXIA333/21.832904ELXY .-.. -..- -.--
PYRAMID279/25.441806EPYF .--. -.-- ..-.
ROBINSON032/34.640003EROB .-. --- -...
CROSSROADS254/37.121508ECSZ -.-. ... --..

Airport Services

Runway Information

Runway 14/32

Dimensions: 2500 x 50 ft. / 762 x 15 m
Surface: turf
RUNWAY 14  RUNWAY 32
Traffic pattern: leftleft

Airport Ownership and Management from official FAA records

Ownership: Privately-owned
Owner: G. A. KNAPP
1530 NWCR 3040
PURDON, TX 76679
Phone 254-578-1030
Manager: G. A. KNAPP
1530 NWCR 3040
PURDON, TX 76679
Phone (254) 578-1030

Airport Operational Statistics

Aircraft based on the field: 2
Single engine airplanes: 2
    

Additional Remarks

FOR CD CTC FORT WORTH ARTCC AT 817-858-7584.

Instrument Procedures

There are no published instrument procedures at 5TS3.

Some nearby airports with instrument procedures:

KCRS - C David Campbell Field-Corsicana Municipal Airport (14 nm E)
F41 - Ennis Municipal Airport (21 nm N)
KLXY - Mexia-Limestone County Airport (22 nm SE)
KINJ - Hillsboro Municipal Airport (22 nm W)
KCNW - TSTC Waco Airport (29 nm SW)
 
Loc | Ops | Rwys | IFR | FBO | Links
Com | Nav | Svcs | Stats | Notes

City of Fort Worth
 
Area around 5TS3 (Knapp Pecan Orchard Airpark)
 
Road maps at: MapQuest Bing Google
 
Aerial photo
No photo
 
Sectional chart

 
Airport distance calculator
Flying to Knapp Pecan Orchard Airpark? Find the distance to fly.

From to 5TS3

Sunrise and sunset
Times for 19-Apr-2021
 Local
(UTC-5)
 Zulu
(UTC)
Morning civil twilight06:2911:29
Sunrise06:5411:54
Sunset19:5700:57
Evening civil twilight20:2301:23

Current date and time
Zulu (UTC)  19-Apr-2021 10:11:23
Local (UTC-5)  19-Apr-2021 05:11:23
 
METAR
KCRS 
15nm E 
190953Z AUTO 26003KT 10SM CLR 08/06 A3008 RMK AO2 SLP186 T00830061
KLXY 
22nm SE 
190955Z AUTO 00000KT 10SM CLR 09/06 A3007 RMK AO2 T00900058
KINJ 
22nm W 
190955Z AUTO 00000KT 10SM CLR 05/05 A3007 RMK AO2 T00490049
KCNW 
28nm SW 
190355Z 08005KT 10SM SKC 09/06 A3012
TAF
KACT 
36nm SW 
190520Z 1906/2006 VRB02KT P6SM FEW250 FM191600 20007KT P6SM SCT150 BKN250
NOTAMs
Click for the latest NOTAMs
NOTAMs are issued by the DoD/FAA and will open in a separate window not controlled by AirNav.

 

 
 

Would you like to see your business listed on this page?

 If your business provides an interesting product or service to pilots, flight crews, aircraft, or users of the Knapp Pecan Orchard Airpark, you should consider listing it here.  To start the listing process, click on the button below
 
Add a business
 

Other Pages about Knapp Pecan Orchard Airpark

Update a link
 
Copyright © AirNav, LLC. All rights reserved. Privacy Policy  Contact